Flag for El Salvador Weather past 2 weeks in Santa Ana, El Salvador

Now
72 °F

Clear.


Feels Like: 69 °F
Forecast: 65 / 80 °F
Wind: 2 mph from South

Location: San Salvador / Ilopango

Current Time: Oct 22, 2014 at 7:52:24 PM

Latest Report: Oct 22, 2014 at 6:50 PM


Visibility: 10 mi

Pressure: 29.89 "Hg

Humidity: 88%

Dew point: 68 °F

Location of Santa AnaLocation

Historic Weather in Santa Ana — Graph

°F

Santa Ana temperature yesterday

Maximum temperature yesterday: 82 °F (at 11:50 AM)
Minimum temperature yesterday: 68 °F (at 5:50 AM)
Average temperature yesterday: 75 °F

Past Weeks' High & Low Weather Summary

 TemperatureHumidityPressure
High84 °F (Oct 8, 10:50 AM)100% (Oct 9, 9:50 PM)30.07 "Hg (Oct 9, 9:50 PM)
Low66 °F (Oct 10, 5:50 AM)29% (Oct 9, 6:50 AM)29.83 "Hg (Oct 10, 3:50 PM)
Average75 °F87%29.94 "Hg
* Reported Oct 7 6:50 PM — Oct 22 6:50 PM, Santa Ana, Weather by CustomWeather, © 2014

Note: Actual official high and low records may vary slightly from our data, if they occured in-between our weather recording intervals... More about our weather records

Advertising

Santa Ana weather history for previous 24 hours

 ConditionsComfort  
Time TempWeatherWind HumidityBarometerVisibility
6:50 PM
Oct 22
72 °FClear.2 mph88%29.89 "Hg10 mi
5:50 PM73 °FPassing clouds.7 mph89%29.89 "HgN/A
4:50 PM75 °FPassing clouds.5 mph89%29.89 "HgN/A
3:50 PM77 °FPassing clouds.2 mph83%29.89 "HgN/A
2:50 PM79 °FScattered clouds.5 mph79%29.89 "HgN/A
1:50 PM79 °FScattered clouds.7 mph79%29.89 "HgN/A
12:50 PM81 °FScattered clouds.7 mph79%29.92 "HgN/A
11:50 AM79 °FScattered clouds.N/A79%29.95 "HgN/A
10:50 AM77 °FScattered clouds.2 mph83%29.98 "HgN/A
9:50 AM77 °FScattered showers. Scattered clouds.2 mph83%29.98 "HgN/A
8:50 AM75 °FPartly sunny.2 mph89%29.98 "HgN/A
7:50 AM73 °FScattered clouds.2 mph94%29.95 "HgN/A
6:50 AM72 °FScattered clouds.No wind94%29.92 "HgN/A
5:50 AM72 °FFog.2 mph94%29.92 "Hg3 mi
11:50 PM
Oct 21
72 °FPassing clouds.2 mph94%29.92 "HgN/A
10:50 PM73 °FThunderstorms. Passing clouds.3 mph89%29.95 "HgN/A
9:50 PM72 °FPassing clouds.3 mph94%29.92 "HgN/A
8:50 PM72 °FPassing clouds.3 mph94%29.92 "HgN/A
7:50 PM73 °FPassing clouds.3 mph89%29.89 "HgN/A
Weather by CustomWeather, © 2014

See weather overviewHow to use our weather pages